Weather History for Ogallala, NE

Change the Weather History Date:

Tuesday, July 2, 2013

  Actual Average Record
Temperature  
Mean Temperature 66 °F -  
Max Temperature 83 °F 88 °F 106 °F (1990)
Min Temperature 50 °F 59 °F 49 °F (2014)
Growing Degree Days 16 (Base 50)    
Moisture  
Dew Point 45 °F    
Average Humidity 46    
Maximum Humidity 82    
Minimum Humidity 24    
Precipitation  
Precipitation 0.00 in - - ()
Sea Level Pressure  
Sea Level Pressure 30.21 in    
Wind  
Wind Speed 3 mph (SE)    
Max Wind Speed 9 mph    
Max Gust Speed 16 mph    
Visibility 10 miles    
Events      
Averages and records for this station are not official NWS values.
T = Trace of Precipitation, MM = Missing Value Source: NWS Daily Summary

Daily Weather History Graph

Daily Weather History Graph

Search for Another Location

Airport:

Trip Planner

Search our weather history database for the weather conditions in past years. The results will help you decide how hot, cold, wet, or windy it might be!

Date:

Astronomy

Jul. 02, 2013 Rise Set
Actual Time 5:18 AM MDT 8:23 PM MDT
Civil Twilight 4:45 AM MDT 8:56 PM MDT
Nautical Twilight 4:02 AM MDT 9:39 PM MDT
Astronomical Twilight 3:12 AM MDT 10:29 PM MDT
Moon 1:24 AM MDT (7/2) 3:37 PM MDT (7/2)
Length of Visible Light 16h 11m
Length of Day
15h 04m
Waning Crescent, 26% of the Moon is Illuminated
Jul 2
Waning Crescent
Jul 8
New
Jul 15
First Quarter
Jul 22
Full
Jul 29
Last Quarter

Hourly Weather History & Observations

Time (MDT) Temp. Dew Point Humidity Pressure Visibility Wind Dir Wind Speed Gust Speed Precip Events Conditions
12:15 AM 58.6 °F 45.0 °F 60% 30.27 in 10.0 mi Calm Calm - N/A   Clear
12:35 AM 58.1 °F 45.0 °F 62% 30.27 in 10.0 mi Calm Calm - N/A   Clear
12:55 AM 59.4 °F 44.8 °F 58% 30.27 in 10.0 mi Calm Calm - N/A   Clear
1:15 AM 57.7 °F 45.3 °F 63% 30.27 in 10.0 mi Calm Calm - N/A   Clear
1:35 AM 57.7 °F 45.1 °F 63% 30.27 in 10.0 mi SSE 3.5 mph - N/A   Clear
1:55 AM 57.7 °F 44.8 °F 62% 30.27 in 10.0 mi Calm Calm - N/A   Clear
2:15 AM 58.8 °F 44.2 °F 58% 30.27 in 10.0 mi Calm Calm - N/A   Clear
2:35 AM 58.1 °F 44.6 °F 61% 30.26 in 10.0 mi South 4.6 mph - N/A   Scattered Clouds
2:55 AM 56.8 °F 44.8 °F 64% 30.26 in 10.0 mi WSW 4.6 mph - N/A   Scattered Clouds
3:15 AM 56.5 °F 45.0 °F 65% 30.26 in 10.0 mi Calm Calm - N/A   Scattered Clouds
3:35 AM 57.0 °F 44.4 °F 63% 30.26 in 10.0 mi Calm Calm - N/A   Clear
3:55 AM 56.1 °F 45.3 °F 67% 30.26 in 10.0 mi Calm Calm - N/A   Clear
4:15 AM 54.7 °F 45.5 °F 71% 30.25 in 10.0 mi Calm Calm - N/A   Clear
4:35 AM 53.6 °F 45.9 °F 75% 30.26 in 10.0 mi West 3.5 mph - N/A   Clear
4:55 AM 53.4 °F 45.0 °F 73% 30.26 in 10.0 mi Calm Calm - N/A   Scattered Clouds
5:15 AM 52.5 °F 45.9 °F 78% 30.27 in 10.0 mi West 3.5 mph - N/A   Scattered Clouds
5:35 AM 50.9 °F 45.5 °F 82% 30.27 in 10.0 mi Calm Calm - N/A   Clear
5:55 AM 51.8 °F 45.9 °F 80% 30.27 in 10.0 mi Calm Calm - N/A   Clear
6:15 AM 53.2 °F 46.8 °F 79% 30.27 in 10.0 mi Calm Calm - N/A   Mostly Cloudy
6:35 AM 55.9 °F 47.1 °F 72% 30.27 in 10.0 mi Calm Calm - N/A   Overcast
6:55 AM 56.8 °F 47.7 °F 71% 30.27 in 10.0 mi Calm Calm - N/A   Scattered Clouds
7:15 AM 58.3 °F 48.9 °F 71% 30.28 in 10.0 mi Calm Calm - N/A   Mostly Cloudy
7:35 AM 61.0 °F 47.7 °F 62% 30.27 in 10.0 mi Calm Calm - N/A   Scattered Clouds
8:15 AM 62.8 °F 46.8 °F 56% 30.27 in 10.0 mi Calm Calm - N/A   Scattered Clouds
8:35 AM 64.8 °F 48.0 °F 55% 30.27 in 10.0 mi South 3.5 mph - N/A   Scattered Clouds
8:55 AM 67.3 °F 48.0 °F 50% 30.27 in 10.0 mi SSE 5.8 mph - N/A   Mostly Cloudy
9:15 AM 70.3 °F 46.6 °F 43% 30.26 in 10.0 mi SSW 6.9 mph - N/A   Scattered Clouds
9:35 AM 72.7 °F 43.7 °F 35% 30.25 in 10.0 mi SSE 9.2 mph - N/A   Clear
10:35 AM 72.5 °F 41.4 °F 32% 30.26 in 10.0 mi South 6.9 mph - N/A   Mostly Cloudy
10:55 AM 73.6 °F 41.0 °F 31% 30.25 in 10.0 mi South 6.9 mph - N/A   Overcast
11:15 AM 74.5 °F 41.2 °F 30% 30.25 in 10.0 mi South 5.8 mph - N/A   Mostly Cloudy
11:35 AM 76.5 °F 42.8 °F 30% 30.24 in 10.0 mi SE 9.2 mph - N/A   Mostly Cloudy
11:55 AM 79.0 °F 43.7 °F 29% 30.24 in 10.0 mi South 6.9 mph - N/A   Scattered Clouds
12:15 PM 78.1 °F 43.0 °F 29% 30.23 in 10.0 mi South 8.1 mph - N/A   Scattered Clouds
12:35 PM 78.3 °F 42.8 °F 28% 30.22 in 10.0 mi SW 8.1 mph - N/A   Scattered Clouds
12:55 PM 79.9 °F 42.8 °F 27% 30.22 in 10.0 mi SSW 6.9 mph 16.1 mph N/A   Clear
1:15 PM 79.3 °F 42.6 °F 27% 30.21 in 10.0 mi South 6.9 mph - N/A   Clear
1:35 PM 80.1 °F 42.6 °F 26% 30.21 in 10.0 mi ESE 3.5 mph - N/A   Clear
1:55 PM 79.0 °F 41.4 °F 26% 30.20 in 10.0 mi SE 5.8 mph - N/A   Scattered Clouds
2:15 PM 79.0 °F 41.2 °F 26% 30.20 in 10.0 mi ESE 3.5 mph - N/A   Mostly Cloudy
2:35 PM 81.1 °F 41.7 °F 25% 30.20 in 10.0 mi SE 5.8 mph - N/A   Scattered Clouds
2:55 PM 79.2 °F 42.4 °F 27% 30.18 in 10.0 mi East 5.8 mph - N/A   Scattered Clouds
3:15 PM 80.1 °F 41.7 °F 26% 30.18 in 10.0 mi South 3.5 mph - N/A   Clear
3:55 PM 81.7 °F 43.3 °F 26% 30.16 in 10.0 mi South 4.6 mph - N/A   Clear
4:35 PM 81.7 °F 41.9 °F 24% 30.15 in 10.0 mi Calm Calm - N/A   Clear
4:55 PM 81.7 °F 41.7 °F 24% 30.15 in 10.0 mi East 4.6 mph - N/A   Scattered Clouds
5:15 PM 80.4 °F 41.9 °F 25% 30.14 in 10.0 mi ESE 5.8 mph - N/A   Scattered Clouds
5:35 PM 80.8 °F 41.7 °F 25% 30.14 in 10.0 mi Calm Calm - N/A   Clear
5:55 PM 80.6 °F 42.1 °F 25% 30.14 in 10.0 mi SE 4.6 mph - N/A   Clear
6:15 PM 81.3 °F 42.6 °F 25% 30.14 in 10.0 mi SSE 5.8 mph - N/A   Scattered Clouds
6:35 PM 80.6 °F 43.2 °F 27% 30.14 in 10.0 mi ESE 6.9 mph - N/A   Scattered Clouds
6:55 PM 79.9 °F 43.0 °F 27% 30.13 in 10.0 mi East 6.9 mph - N/A   Clear
7:15 PM 79.2 °F 43.0 °F 28% 30.14 in 10.0 mi ESE 8.1 mph - N/A   Clear
7:35 PM 77.7 °F 43.9 °F 30% 30.14 in 10.0 mi ESE 5.8 mph - N/A   Clear
7:55 PM 76.1 °F 44.8 °F 33% 30.14 in 10.0 mi ESE 6.9 mph - N/A   Clear
8:15 PM 73.8 °F 45.5 °F 36% 30.14 in 10.0 mi ESE 5.8 mph - N/A   Clear
8:35 PM 72.0 °F 45.5 °F 39% 30.13 in 10.0 mi ESE 6.9 mph - N/A   Clear
8:55 PM 69.8 °F 46.4 °F 43% 30.14 in 10.0 mi East 5.8 mph - N/A   Clear
9:15 PM 68.9 °F 46.4 °F 44% 30.14 in 10.0 mi East 5.8 mph - N/A   Clear
9:35 PM 67.5 °F 46.9 °F 48% 30.15 in 10.0 mi East 5.8 mph - N/A   Clear
9:55 PM 66.7 °F 47.5 °F 50% 30.15 in 10.0 mi East 3.5 mph - N/A   Clear
10:15 PM 64.6 °F 48.2 °F 55% 30.15 in 10.0 mi East 4.6 mph - N/A   Clear
10:35 PM 64.4 °F 48.7 °F 57% 30.15 in 10.0 mi East 4.6 mph - N/A   Clear
10:55 PM 63.5 °F 47.7 °F 56% 30.15 in 10.0 mi East 5.8 mph - N/A   Clear
11:15 PM 63.7 °F 45.1 °F 51% 30.15 in 10.0 mi ESE 3.5 mph - N/A   Clear
11:35 PM 62.6 °F 44.2 °F 51% 30.15 in 10.0 mi Calm Calm - N/A   Clear
11:55 PM 63.3 °F 42.8 °F 47% 30.15 in 10.0 mi ESE 4.6 mph - N/A   Clear